Airfield :
LOGIN :

Register | Disclaimer

   EN    FR    IT 

 










Legend :    VFR   Marginal VFR   IFR   Intensive IFR   Very Intensive IFR
Visi :
Ceiling :
>= 8 km
>= 3000ft
5 to 8 km
1000 to 3000 ft
1500m to 5 km
500 to 1000 ft
800 to 1500m
200 to 500 ft
< 800m
< 200 ft
Symbols :   Thunderstorms  Fog  Heavy snow  Heavy precipitations  Wind > 20 kt
SIGMETs :     Misc.  Thunderstorms  Icing  Turbulence  Mountain Waves  Volcanic Ashes







- Airport Elevation : 26 ft
- IATA code : BIA
- Download approach charts


LFKB - Bastia

CURRENT METAR :
  • 281230Z 12007KT 090V160 9999 FEW023 29/21 Q1013 NOSIG

EXPIRED METARs :
  • 281130Z 12007KT 070V160 9999 FEW023 29/21 Q1013 NOSIG
  • 281100Z 11008KT 070V160 9999 FEW023 28/21 Q1013 NOSIG
  • 281000Z 13008KT 100V170 9999 FEW020 28/21 Q1013 NOSIG

TAF TAF LFKB
Valid from the 28 at 09:00 until the 29 at 09:00 UTC


280800Z 2809/2909 13006KT 9999 FEW025
BECMG 2809/2810 04007KT
BECMG 2820/2821 24004KT
TEMPO 2809/2811 SCT017 TX30/2812Z TN20/2904Z
ATIS : +33 4 95 59 19 40
No reported NOTAMs for that airfield.



MET'MAP, your aeronautical weather chart ! - Copyright ORBIFLY December 2007 - Disclaimer

ORBIFLY MET'MAP TEAM :

Programming & Development : Alexandra Zaïnal
Concept & Development : Baudouin d'Aumeries
Co-Development & Prog : Marc-Olivier Méhu
Technical & hardware support : Manuel Goepfert

Contact : metmap@orbifly.com




SOURCES & CREDITS :

   NOAA